Погода в Увате

Россия / Тюменская область     59°08′31″N   68°53′43″E
темп.,
°C
ветер,
м/с
пор.,
м/с
влажн.,
%
обл.,
%
осадки,
мм/ч
давл.,
гПа
погр.,
м
28 июля, ср
ср2823:00+11з269933 0.8 1005174
02:00+9зсз26989 0.0 1005125
05:00+8зсз25965 0.0 1006101
08:00+13зсз237567 0.0 1006367
11:00+17зюз3541100 0.0 10052331
14:00+17зюз344396 0.0 10042087
17:00+12сз4779100 0.3 1006506
20:00+11зсз2474100 0.1 1006121
29 июля, чт
чт2923:00+8з228799 0.1 100634
02:00+6з23965 0.0 100657
05:00+6зюз2494100 0.0 1006119
08:00+11зюз2468100 0.0 1006617
11:00+12зюз3668100 0.8 10051102
14:00+13зюз476895 0.7 10051183
17:00+12зюз4676100 1.4 1005894
20:00+10зюз378984 0.4 1005428
30 июля, пт
пт3023:00+8юз2698100 0.5 1005211
02:00+6юз269820 0.1 1005131
05:00+5юз269821 0.1 1005142
08:00+11зюз35826 0.0 1006432
11:00+16зюз344689 0.0 10051749
14:00+17юз3544100 0.0 10051812
17:00+14ююз3577100 0.1 1005458
20:00+12ююв2496100 0.3 1005159
31 июля, сб
сб3123:00+11ю2398100 0.6 100586
02:00+11в1198100 1.8 100432
05:00+11св1197100 1.9 100535
08:00+14ссв118560 0.0 1006344
11:00+20сз125766 0.0 10061249
14:00+19з2255100 0.1 10071335
17:00+18юз2368100 0.1 1008295
20:00+15ююв228412 0.1 100918
1 августа, вс
вс123:00+12ююв239610 0.1 100862
02:00+12ююв279811 0.0 1008137
05:00+13юв3998100 0.0 1006235
08:00+16ююв41290100 0.1 1005500
11:00+20ю51083100 0.5 1003910
14:00+21ююз499065 2.9 1002765
17:00+21з3789100 5.3 1002691
20:00+18зсз27930 1.0 1002161